| time (UTC) | temp C | wind direction | speed KPH | gust KPH | rain 1hr cm | rain 24hr cm | rain mn cm | humidity % | barometer mb |
| 20260508060404 | 13 | 0 | 0.0 | 0.0 | 0.00 | 0.03 | 0.00 | 88 | 1020.5 |
| 20260508055906 | 13 | 0 | 0.0 | 0.0 | 0.00 | 0.03 | 0.00 | 88 | 1020.3 |
| 20260508055403 | 13 | 0 | 0.0 | 0.0 | 0.00 | 0.03 | 0.00 | 88 | 1020.0 |
| 20260508054903 | 13 | 0 | 0.0 | 0.0 | 0.00 | 0.03 | 0.00 | 88 | 1019.9 |
| 20260508054404 | 13 | 0 | 0.0 | 0.0 | 0.00 | 0.03 | 0.00 | 88 | 1019.8 |
| 20260508052905 | 13 | 0 | 0.0 | 0.0 | 0.00 | 0.03 | 0.00 | 88 | 1019.8 |
| 20260508051904 | 13 | 0 | 0.0 | 0.0 | 0.00 | 0.03 | 0.00 | 88 | 1019.9 |
| 20260508050406 | 13 | 0 | 0.0 | 0.0 | 0.00 | 0.03 | 0.00 | 88 | 1019.9 |
| 20260508045403 | 13 | 0 | 0.0 | 0.0 | 0.00 | 0.03 | 0.00 | 88 | 1019.8 |
| 20260508044903 | 13 | 0 | 0.0 | 0.0 | 0.00 | 0.03 | 0.00 | 88 | 1019.7 |
| 20260508044404 | 13 | 0 | 0.0 | 0.0 | 0.00 | 0.03 | 0.00 | 88 | 1019.7 |
| 20260508042905 | 13 | 0 | 0.0 | 0.0 | 0.00 | 0.03 | 0.00 | 88 | 1019.6 |
| 20260508042404 | 13 | 0 | 0.0 | 0.0 | 0.00 | 0.03 | 0.00 | 88 | 1019.5 |
| 20260508041903 | 13 | 0 | 0.0 | 0.0 | 0.00 | 0.03 | 0.00 | 88 | 1019.4 |
| 20260508040904 | 13 | 0 | 0.0 | 0.0 | 0.00 | 0.03 | 0.00 | 88 | 1019.4 |
| 20260508040404 | 13 | 0 | 0.0 | 0.0 | 0.00 | 0.03 | 0.00 | 88 | 1019.4 |
| 20260508034904 | 13 | 2 | 0.0 | 0.0 | 0.00 | 0.03 | 0.00 | 88 | 1019.6 |
| 20260508034405 | 13 | 52 | 0.0 | 1.6 | 0.00 | 0.03 | 0.00 | 88 | 1019.6 |
| 20260508033904 | 13 | 52 | 0.0 | 1.6 | 0.00 | 0.03 | 0.00 | 88 | 1019.6 |
| 20260508032404 | 13 | 54 | 0.0 | 0.0 | 0.00 | 0.03 | 0.00 | 87 | 1019.7 |
| 20260508031905 | 14 | 54 | 0.0 | 0.0 | 0.00 | 0.03 | 0.00 | 87 | 1019.6 |
| 20260508031405 | 14 | 54 | 0.0 | 0.0 | 0.00 | 0.03 | 0.00 | 87 | 1019.5 |
| 20260508030905 | 13 | 54 | 0.0 | 1.6 | 0.00 | 0.03 | 0.00 | 87 | 1019.5 |
| 20260508030403 | 13 | 54 | 0.0 | 1.6 | 0.00 | 0.03 | 0.00 | 87 | 1019.4 |
| 20260508024904 | 14 | 54 | 0.0 | 0.0 | 0.00 | 0.03 | 0.00 | 87 | 1019.5 |
| 20260508024404 | 14 | 54 | 0.0 | 0.0 | 0.00 | 0.03 | 0.00 | 87 | 1019.5 |
| 20260508023905 | 14 | 54 | 0.0 | 0.0 | 0.00 | 0.03 | 0.00 | 87 | 1019.4 |
| 20260508023403 | 14 | 54 | 0.0 | 0.0 | 0.00 | 0.03 | 0.00 | 87 | 1019.3 |
| 20260508022905 | 14 | 54 | 0.0 | 0.0 | 0.00 | 0.03 | 0.00 | 87 | 1019.3 |
| 20260508022404 | 14 | 54 | 0.0 | 0.0 | 0.00 | 0.03 | 0.00 | 87 | 1019.3 |
| 20260508021904 | 14 | 54 | 0.0 | 0.0 | 0.00 | 0.03 | 0.00 | 86 | 1019.3 |
| 20260508021403 | 14 | 54 | 0.0 | 0.0 | 0.00 | 0.03 | 0.00 | 86 | 1019.1 |
| 20260508020905 | 14 | 54 | 0.0 | 0.0 | 0.00 | 0.03 | 0.00 | 86 | 1019.2 |
| 20260508020403 | 14 | 54 | 0.0 | 0.0 | 0.00 | 0.03 | 0.00 | 86 | 1019.2 |
| 20260508015904 | 15 | 54 | 0.0 | 0.0 | 0.00 | 0.03 | 0.00 | 86 | 1019.2 |
| 20260508015403 | 15 | 54 | 0.0 | 0.0 | 0.00 | 0.03 | 0.00 | 86 | 1019.2 |
| 20260508014905 | 15 | 54 | 0.0 | 1.6 | 0.00 | 0.03 | 0.00 | 86 | 1019.2 |
| 20260508014404 | 15 | 54 | 0.0 | 1.6 | 0.00 | 0.03 | 0.00 | 86 | 1019.3 |
| 20260508013904 | 15 | 54 | 0.0 | 1.6 | 0.00 | 0.03 | 0.00 | 86 | 1019.3 |
| 20260508013405 | 15 | 54 | 0.0 | 0.0 | 0.00 | 0.03 | 0.00 | 86 | 1019.3 |
| 20260508011404 | 15 | 54 | 0.0 | 0.0 | 0.00 | 0.03 | 0.00 | 85 | 1019.5 |
| 20260508010903 | 15 | 54 | 0.0 | 0.0 | 0.00 | 0.03 | 0.00 | 85 | 1019.7 |
| 20260508010405 | 15 | 54 | 0.0 | 0.0 | 0.00 | 0.03 | 0.00 | 84 | 1019.7 |
| 20260508005906 | 15 | 54 | 0.0 | 1.6 | 0.00 | 0.03 | 0.00 | 84 | 1019.8 |
| 20260508005406 | 15 | 54 | 0.0 | 1.6 | 0.00 | 0.03 | 0.00 | 84 | 1019.8 |
| 20260508004904 | 15 | 54 | 0.0 | 1.6 | 0.00 | 0.03 | 0.00 | 83 | 1019.8 |
| 20260508004404 | 15 | 55 | 0.0 | 1.6 | 0.00 | 0.03 | 0.00 | 82 | 1019.8 |
| 20260508003904 | 15 | 55 | 0.0 | 0.0 | 0.00 | 0.03 | 0.00 | 81 | 1019.9 |
| 20260508003404 | 15 | 55 | 0.0 | 1.6 | 0.00 | 0.03 | 0.00 | 80 | 1019.9 |
| 20260508002403 | 15 | 55 | 1.6 | 1.6 | 0.00 | 0.03 | 0.00 | 80 | 1019.8 |
| 20260508001403 | 15 | 27 | 0.0 | 1.6 | 0.00 | 0.03 | 0.00 | 81 | 1020.0 |
| 20260508000904 | 16 | 52 | 0.0 | 1.6 | 0.00 | 0.03 | 0.00 | 80 | 1019.9 |
| 20260508000405 | 16 | 52 | 0.0 | 3.2 | 0.00 | 0.03 | 0.00 | 81 | 1020.0 |
| 20260507235404 | 15 | 54 | 0.0 | 3.2 | 0.00 | 0.03 | 0.00 | 83 | 1020.1 |
| 20260507234905 | 15 | 55 | 0.0 | 3.2 | 0.00 | 0.03 | 0.00 | 83 | 1020.1 |
| 20260507234403 | 15 | 55 | 0.0 | 3.2 | 0.00 | 0.03 | 0.00 | 83 | 1020.1 |
| 20260507233403 | 15 | 55 | 1.6 | 3.2 | 0.00 | 0.03 | 0.00 | 82 | 1020.2 |
| 20260507232904 | 15 | 54 | 1.6 | 3.2 | 0.00 | 0.03 | 0.00 | 82 | 1020.2 |
| 20260507232404 | 16 | 71 | 1.6 | 3.2 | 0.00 | 0.03 | 0.00 | 82 | 1020.2 |
| 20260507231404 | 15 | 79 | 1.6 | 1.6 | 0.00 | 0.03 | 0.00 | 83 | 1020.4 |
| 20260507230904 | 15 | 80 | 0.0 | 0.0 | 0.00 | 0.03 | 0.00 | 84 | 1020.4 |
| 20260507230406 | 15 | 80 | 0.0 | 0.0 | 0.00 | 0.03 | 0.00 | 84 | 1020.5 |
| 20260507225904 | 15 | 80 | 0.0 | 0.0 | 0.00 | 0.03 | 0.00 | 84 | 1020.5 |
| 20260507225404 | 15 | 80 | 0.0 | 0.0 | 0.00 | 0.03 | 0.00 | 84 | 1020.6 |
| 20260507224904 | 15 | 80 | 0.0 | 0.0 | 0.00 | 0.03 | 0.00 | 84 | 1020.5 |
| 20260507224405 | 15 | 80 | 0.0 | 1.6 | 0.00 | 0.03 | 0.00 | 84 | 1020.7 |
| 20260507223905 | 15 | 80 | 0.0 | 1.6 | 0.00 | 0.03 | 0.00 | 83 | 1020.8 |
| 20260507223404 | 16 | 80 | 0.0 | 1.6 | 0.00 | 0.03 | 0.00 | 82 | 1020.9 |
| 20260507222904 | 16 | 57 | 0.0 | 1.6 | 0.00 | 0.03 | 0.00 | 82 | 1020.9 |
| 20260507222404 | 16 | 57 | 0.0 | 1.6 | 0.00 | 0.03 | 0.00 | 82 | 1020.9 |
| 20260507221904 | 16 | 57 | 1.6 | 3.2 | 0.00 | 0.03 | 0.00 | 82 | 1020.8 |
| 20260507221406 | 16 | 55 | 1.6 | 3.2 | 0.00 | 0.03 | 0.00 | 82 | 1020.8 |
| 20260507220903 | 16 | 65 | 1.6 | 4.8 | 0.00 | 0.03 | 0.00 | 81 | 1020.7 |
| 20260507220404 | 16 | 62 | 1.6 | 4.8 | 0.00 | 0.03 | 0.00 | 81 | 1020.7 |
| 20260507215903 | 16 | 56 | 1.6 | 3.2 | 0.00 | 0.03 | 0.00 | 81 | 1020.7 |
| 20260507215405 | 16 | 51 | 1.6 | 3.2 | 0.00 | 0.03 | 0.00 | 81 | 1020.8 |
| 20260507214403 | 16 | 56 | 1.6 | 3.2 | 0.00 | 0.03 | 0.00 | 81 | 1020.7 |
| 20260507213904 | 16 | 66 | 1.6 | 3.2 | 0.00 | 0.03 | 0.00 | 81 | 1020.7 |
| 20260507213406 | 16 | 58 | 1.6 | 3.2 | 0.00 | 0.03 | 0.00 | 82 | 1020.7 |
| 20260507212905 | 16 | 66 | 1.6 | 1.6 | 0.00 | 0.03 | 0.00 | 82 | 1020.7 |
| 20260507212404 | 16 | 66 | 1.6 | 3.2 | 0.00 | 0.03 | 0.00 | 82 | 1020.8 |
| 20260507211903 | 16 | 66 | 1.6 | 3.2 | 0.00 | 0.03 | 0.00 | 82 | 1020.8 |
| 20260507211405 | 16 | 65 | 1.6 | 1.6 | 0.00 | 0.03 | 0.00 | 82 | 1020.9 |
| 20260507210903 | 16 | 65 | 1.6 | 1.6 | 0.00 | 0.03 | 0.00 | 81 | 1020.8 |
| 20260507205904 | 16 | 65 | 0.0 | 1.6 | 0.00 | 0.03 | 0.03 | 81 | 1020.7 |
| 20260507205404 | 16 | 65 | 0.0 | 1.6 | 0.00 | 0.03 | 0.03 | 81 | 1020.7 |
| 20260507204403 | 16 | 65 | 0.0 | 1.6 | 0.00 | 0.03 | 0.03 | 80 | 1020.6 |
| 20260507203903 | 16 | 65 | 1.6 | 1.6 | 0.00 | 0.03 | 0.03 | 80 | 1020.6 |
| 20260507203403 | 16 | 65 | 1.6 | 1.6 | 0.00 | 0.03 | 0.03 | 80 | 1020.6 |
| 20260507202905 | 16 | 65 | 1.6 | 1.6 | 0.00 | 0.03 | 0.03 | 79 | 1020.6 |
| 20260507202404 | 16 | 66 | 1.6 | 3.2 | 0.00 | 0.03 | 0.03 | 79 | 1020.6 |
| 20260507201904 | 16 | 72 | 1.6 | 3.2 | 0.00 | 0.03 | 0.03 | 80 | 1020.6 |
| 20260507201405 | 16 | 63 | 1.6 | 3.2 | 0.00 | 0.03 | 0.03 | 81 | 1020.6 |
| 20260507200903 | 16 | 70 | 1.6 | 3.2 | 0.00 | 0.03 | 0.03 | 81 | 1020.6 |
| 20260507200404 | 16 | 57 | 3.2 | 3.2 | 0.00 | 0.03 | 0.03 | 80 | 1020.6 |
| 20260507195903 | 16 | 56 | 1.6 | 3.2 | 0.00 | 0.03 | 0.03 | 80 | 1020.6 |
| 20260507195405 | 16 | 55 | 0.0 | 0.0 | 0.00 | 0.03 | 0.03 | 80 | 1020.6 |
| 20260507194905 | 16 | 55 | 0.0 | 1.6 | 0.00 | 0.03 | 0.03 | 80 | 1020.7 |
| 20260507194403 | 16 | 55 | 0.0 | 3.2 | 0.00 | 0.03 | 0.03 | 80 | 1020.8 |
| 20260507193905 | 16 | 55 | 1.6 | 3.2 | 0.00 | 0.03 | 0.03 | 80 | 1020.7 |
| 20260507193404 | 16 | 58 | 1.6 | 3.2 | 0.00 | 0.03 | 0.03 | 79 | 1020.6 |
| 20260507192404 | 16 | 52 | 0.0 | 3.2 | 0.00 | 0.03 | 0.03 | 78 | 1020.7 |
| 20260507191404 | 16 | 55 | 1.6 | 3.2 | 0.00 | 0.03 | 0.03 | 79 | 1020.6 |
| 20260507190404 | 17 | 53 | 1.6 | 3.2 | 0.00 | 0.03 | 0.03 | 79 | 1020.7 |
| 20260507185903 | 17 | 65 | 1.6 | 3.2 | 0.00 | 0.03 | 0.03 | 79 | 1020.8 |
| 20260507185404 | 17 | 58 | 1.6 | 4.8 | 0.00 | 0.03 | 0.03 | 79 | 1020.7 |
| 20260507184905 | 17 | 66 | 1.6 | 4.8 | 0.00 | 0.03 | 0.03 | 79 | 1020.6 |
| 20260507184404 | 17 | 53 | 1.6 | 1.6 | 0.00 | 0.03 | 0.03 | 80 | 1020.6 |
| 20260507183904 | 16 | 54 | 1.6 | 1.6 | 0.00 | 0.03 | 0.03 | 80 | 1020.6 |
| 20260507183403 | 17 | 54 | 1.6 | 3.2 | 0.00 | 0.03 | 0.03 | 80 | 1020.5 |
| 20260507182905 | 17 | 53 | 0.0 | 4.8 | 0.00 | 0.03 | 0.03 | 80 | 1020.5 |
| 20260507182403 | 17 | 54 | 1.6 | 4.8 | 0.00 | 0.03 | 0.03 | 80 | 1020.5 |
| 20260507181404 | 17 | 44 | 1.6 | 3.2 | 0.00 | 0.03 | 0.03 | 80 | 1020.4 |
| 20260507180904 | 17 | 46 | 0.0 | 1.6 | 0.00 | 0.03 | 0.03 | 79 | 1020.4 |
| 20260507180403 | 17 | 46 | 0.0 | 1.6 | 0.00 | 0.03 | 0.03 | 79 | 1020.4 |
| 20260507175905 | 17 | 38 | 0.0 | 0.0 | 0.00 | 0.03 | 0.03 | 79 | 1020.4 |
| 20260507175403 | 17 | 38 | 0.0 | 0.0 | 0.00 | 0.03 | 0.03 | 78 | 1020.4 |
| 20260507174903 | 17 | 38 | 0.0 | 0.0 | 0.00 | 0.03 | 0.03 | 77 | 1020.5 |
| 20260507174404 | 17 | 39 | 0.0 | 1.6 | 0.00 | 0.03 | 0.03 | 78 | 1020.4 |
| 20260507173403 | 17 | 39 | 0.0 | 0.0 | 0.00 | 0.03 | 0.03 | 76 | 1019.9 |
| 20260507172405 | 18 | 39 | 0.0 | 3.2 | 0.00 | 0.03 | 0.03 | 75 | 1019.6 |
| 20260507171906 | 17 | 39 | 0.0 | 4.8 | 0.00 | 0.03 | 0.03 | 75 | 1019.7 |
| 20260507171406 | 17 | 45 | 1.6 | 4.8 | 0.00 | 0.03 | 0.03 | 75 | 1019.8 |
| 20260507170404 | 18 | 69 | 1.6 | 3.2 | 0.00 | 0.03 | 0.03 | 76 | 1020.2 |
| 20260507165905 | 18 | 53 | 1.6 | 3.2 | 0.00 | 0.03 | 0.03 | 76 | 1020.3 |
| 20260507164904 | 19 | 169 | 0.0 | 0.0 | 0.00 | 0.03 | 0.03 | 76 | 1020.6 |
| 20260507163904 | 19 | 169 | 0.0 | 0.0 | 0.00 | 0.03 | 0.03 | 75 | 1020.6 |
| 20260507163403 | 19 | 169 | 0.0 | 0.0 | 0.00 | 0.03 | 0.03 | 74 | 1020.5 |
| 20260507162404 | 19 | 169 | 0.0 | 0.0 | 0.00 | 0.03 | 0.03 | 74 | 1020.5 |
| 20260507161905 | 19 | 169 | 0.0 | 1.6 | 0.00 | 0.03 | 0.03 | 74 | 1020.6 |
| 20260507160903 | 19 | 176 | 0.0 | 3.2 | 0.00 | 0.03 | 0.03 | 74 | 1020.6 |
| 20260507160403 | 19 | 215 | 0.0 | 3.2 | 0.00 | 0.03 | 0.03 | 73 | 1020.6 |
| 20260507155404 | 20 | 185 | 0.0 | 1.6 | 0.00 | 0.03 | 0.03 | 73 | 1020.5 |
| 20260507154405 | 20 | 220 | 0.0 | 0.0 | 0.00 | 0.03 | 0.03 | 73 | 1020.6 |
| 20260507153904 | 20 | 222 | 0.0 | 1.6 | 0.00 | 0.03 | 0.03 | 74 | 1020.6 |
| 20260507153403 | 19 | 222 | 0.0 | 1.6 | 0.00 | 0.03 | 0.03 | 74 | 1020.8 |
| 20260507152903 | 19 | 221 | 0.0 | 1.6 | 0.00 | 0.03 | 0.03 | 72 | 1020.8 |
| 20260507152405 | 19 | 221 | 0.0 | 1.6 | 0.00 | 0.03 | 0.03 | 73 | 1020.8 |
| 20260507151904 | 19 | 223 | 0.0 | 1.6 | 0.00 | 0.03 | 0.03 | 72 | 1020.9 |
| 20260507151404 | 20 | 160 | 0.0 | 1.6 | 0.00 | 0.03 | 0.03 | 72 | 1020.8 |
| 20260507150904 | 20 | 198 | 0.0 | 0.0 | 0.00 | 0.03 | 0.03 | 72 | 1020.8 |
| 20260507150404 | 20 | 198 | 0.0 | 1.6 | 0.00 | 0.03 | 0.03 | 70 | 1020.8 |
| 20260507145904 | 20 | 198 | 0.0 | 1.6 | 0.00 | 0.03 | 0.03 | 70 | 1020.7 |
| 20260507144904 | 20 | 214 | 0.0 | 3.2 | 0.00 | 0.03 | 0.03 | 69 | 1020.8 |
| 20260507144404 | 20 | 210 | 0.0 | 3.2 | 0.00 | 0.03 | 0.03 | 69 | 1020.8 |
| 20260507143906 | 21 | 250 | 1.6 | 3.2 | 0.00 | 0.03 | 0.03 | 67 | 1020.8 |
| 20260507143403 | 21 | 212 | 0.0 | 3.2 | 0.00 | 0.03 | 0.03 | 67 | 1020.8 |
| 20260507142905 | 21 | 229 | 0.0 | 4.8 | 0.00 | 0.03 | 0.03 | 68 | 1020.7 |
| 20260507142404 | 21 | 226 | 1.6 | 4.8 | 0.00 | 0.03 | 0.03 | 68 | 1020.8 |
| 20260507140905 | 22 | 253 | 1.6 | 4.8 | 0.00 | 0.03 | 0.03 | 67 | 1020.7 |
| 20260507140404 | 22 | 204 | 1.6 | 4.8 | 0.00 | 0.03 | 0.03 | 67 | 1020.6 |
| 20260507135404 | 22 | 217 | 1.6 | 3.2 | 0.00 | 0.03 | 0.03 | 68 | 1020.5 |
| 20260507134904 | 22 | 230 | 0.0 | 3.2 | 0.00 | 0.03 | 0.03 | 70 | 1020.5 |
| 20260507134404 | 21 | 255 | 0.0 | 4.8 | 0.00 | 0.03 | 0.03 | 69 | 1020.5 |
| 20260507133904 | 21 | 233 | 1.6 | 4.8 | 0.00 | 0.03 | 0.03 | 68 | 1020.4 |
| 20260507133406 | 21 | 217 | 1.6 | 4.8 | 0.00 | 0.03 | 0.03 | 68 | 1020.5 |
| 20260507132905 | 21 | 191 | 0.0 | 4.8 | 0.00 | 0.03 | 0.03 | 71 | 1020.5 |
| 20260507132404 | 21 | 206 | 0.0 | 4.8 | 0.00 | 0.03 | 0.03 | 72 | 1020.5 |
| 20260507131906 | 21 | 201 | 1.6 | 4.8 | 0.00 | 0.03 | 0.03 | 73 | 1020.6 |
| 20260507131406 | 21 | 122 | 1.6 | 4.8 | 0.00 | 0.03 | 0.03 | 70 | 1020.7 |
| 20260507130904 | 20 | 75 | 0.0 | 3.2 | 0.00 | 0.03 | 0.03 | 73 | 1020.7 |
| 20260507130403 | 20 | 45 | 1.6 | 3.2 | 0.00 | 0.03 | 0.03 | 72 | 1020.8 |
| 20260507125903 | 20 | 54 | 0.0 | 1.6 | 0.00 | 0.03 | 0.03 | 74 | 1020.8 |
| 20260507125405 | 20 | 54 | 0.0 | 12.9 | 0.00 | 0.03 | 0.03 | 73 | 1020.7 |
| 20260507124905 | 20 | 4 | 1.6 | 12.9 | 0.00 | 0.03 | 0.03 | 71 | 1020.6 |
| 20260507123904 | 20 | 50 | 3.2 | 9.7 | 0.00 | 0.03 | 0.03 | 70 | 1020.7 |
| 20260507123403 | 20 | 51 | 4.8 | 9.7 | 0.00 | 0.03 | 0.03 | 69 | 1021.0 |
| 20260507122903 | 20 | 52 | 0.0 | 3.2 | 0.00 | 0.03 | 0.03 | 72 | 1021.2 |
| 20260507121903 | 19 | 243 | 0.0 | 1.6 | 0.00 | 0.03 | 0.03 | 78 | 1021.5 |
| 20260507121405 | 18 | 257 | 0.0 | 1.6 | 0.00 | 0.03 | 0.03 | 79 | 1021.6 |
| 20260507120403 | 18 | 2 | 0.0 | 3.2 | 0.00 | 0.03 | 0.03 | 82 | 1021.6 |
| 20260507115906 | 18 | 356 | 0.0 | 4.8 | 0.00 | 0.03 | 0.03 | 84 | 1021.7 |
| 20260507115403 | 18 | 22 | 1.6 | 4.8 | 0.00 | 0.03 | 0.03 | 84 | 1021.7 |
| 20260507114904 | 17 | 43 | 0.0 | 3.2 | 0.03 | 0.03 | 0.03 | 84 | 1021.8 |
| 20260507114403 | 17 | 33 | 0.0 | 3.2 | 0.03 | 0.03 | 0.03 | 83 | 1021.9 |
| 20260507113905 | 18 | 19 | 1.6 | 3.2 | 0.03 | 0.03 | 0.03 | 83 | 1021.9 |
| 20260507113404 | 18 | 30 | 0.0 | 1.6 | 0.03 | 0.03 | 0.03 | 83 | 1022.1 |
| 20260507112903 | 18 | 348 | 0.0 | 0.0 | 0.03 | 0.03 | 0.03 | 83 | 1022.1 |
| 20260507105905 | 18 | 347 | 0.0 | 1.6 | 0.03 | 0.03 | 0.03 | 79 | 1022.1 |
| 20260507105403 | 18 | 283 | 0.0 | 0.0 | 0.03 | 0.03 | 0.03 | 80 | 1022.2 |
| 20260507104903 | 18 | 283 | 0.0 | 1.6 | 0.00 | 0.00 | 0.00 | 79 | 1022.2 |
| 20260507104405 | 19 | 282 | 0.0 | 1.6 | 0.00 | 0.00 | 0.00 | 78 | 1022.1 |
| 20260507103905 | 19 | 294 | 0.0 | 1.6 | 0.00 | 0.00 | 0.00 | 76 | 1022.2 |
| 20260507103403 | 19 | 295 | 0.0 | 3.2 | 0.00 | 0.00 | 0.00 | 75 | 1022.2 |
| 20260507102904 | 19 | 295 | 0.0 | 3.2 | 0.00 | 0.00 | 0.00 | 71 | 1022.1 |
| 20260507102403 | 20 | 314 | 1.6 | 3.2 | 0.00 | 0.00 | 0.00 | 69 | 1022.1 |
| 20260507101904 | 20 | 285 | 0.0 | 3.2 | 0.00 | 0.00 | 0.00 | 70 | 1022.1 |
| 20260507100903 | 20 | 257 | 0.0 | 8.0 | 0.00 | 0.00 | 0.00 | 68 | 1022.1 |
| 20260507100403 | 20 | 243 | 3.2 | 8.0 | 0.00 | 0.00 | 0.00 | 70 | 1022.1 |
| 20260507095905 | 20 | 249 | 3.2 | 8.0 | 0.00 | 0.00 | 0.00 | 68 | 1022.1 |
| 20260507095404 | 20 | 245 | 1.6 | 4.8 | 0.00 | 0.00 | 0.00 | 67 | 1022.1 |
| 20260507094905 | 20 | 240 | 0.0 | 4.8 | 0.00 | 0.00 | 0.00 | 67 | 1021.9 |
| 20260507093405 | 20 | 238 | 1.6 | 4.8 | 0.00 | 0.00 | 0.00 | 64 | 1021.8 |
| 20260507092904 | 20 | 269 | 0.0 | 1.6 | 0.00 | 0.00 | 0.00 | 64 | 1021.7 |
| 20260507092406 | 20 | 287 | 0.0 | 1.6 | 0.00 | 0.00 | 0.00 | 62 | 1021.5 |
| 20260507091904 | 20 | 296 | 0.0 | 1.6 | 0.00 | 0.00 | 0.00 | 61 | 1021.4 |
| 20260507091404 | 20 | 350 | 0.0 | 3.2 | 0.00 | 0.00 | 0.00 | 64 | 1021.4 |
| 20260507090904 | 20 | 213 | 0.0 | 3.2 | 0.00 | 0.00 | 0.00 | 64 | 1021.3 |
| 20260507090405 | 20 | 268 | 0.0 | 3.2 | 0.00 | 0.00 | 0.00 | 65 | 1021.3 |
| 20260507084404 | 20 | 219 | 0.0 | 1.6 | 0.00 | 0.00 | 0.00 | 66 | 1021.1 |
| 20260507083903 | 20 | 217 | 0.0 | 3.2 | 0.00 | 0.00 | 0.00 | 65 | 1021.1 |
| 20260507083403 | 20 | 221 | 0.0 | 3.2 | 0.00 | 0.00 | 0.00 | 68 | 1021.1 |
| 20260507082905 | 20 | 238 | 0.0 | 4.8 | 0.00 | 0.00 | 0.00 | 68 | 1021.1 |
| 20260507082404 | 20 | 244 | 1.6 | 4.8 | 0.00 | 0.00 | 0.00 | 68 | 1021.0 |
| 20260507081904 | 20 | 237 | 0.0 | 4.8 | 0.00 | 0.00 | 0.00 | 69 | 1021.0 |
| 20260507081405 | 20 | 229 | 1.6 | 4.8 | 0.00 | 0.00 | 0.00 | 67 | 1021.0 |
| 20260507080903 | 20 | 249 | 0.0 | 3.2 | 0.00 | 0.00 | 0.00 | 68 | 1020.9 |
| 20260507075903 | 20 | 220 | 0.0 | 3.2 | 0.00 | 0.00 | 0.00 | 67 | 1020.8 |
| 20260507075403 | 20 | 196 | 0.0 | 3.2 | 0.00 | 0.00 | 0.00 | 69 | 1020.7 |
| 20260507074905 | 20 | 251 | 1.6 | 3.2 | 0.00 | 0.00 | 0.00 | 68 | 1020.6 |
| 20260507074404 | 20 | 192 | 0.0 | 1.6 | 0.00 | 0.00 | 0.00 | 68 | 1020.5 |
| 20260507073903 | 20 | 211 | 0.0 | 1.6 | 0.00 | 0.00 | 0.00 | 67 | 1020.3 |
| 20260507073404 | 20 | 214 | 0.0 | 3.2 | 0.00 | 0.00 | 0.00 | 69 | 1020.3 |
| 20260507072905 | 20 | 209 | 0.0 | 3.2 | 0.00 | 0.00 | 0.00 | 70 | 1020.4 |
| 20260507071904 | 20 | 238 | 1.6 | 3.2 | 0.00 | 0.00 | 0.00 | 69 | 1020.2 |
| 20260507071404 | 20 | 238 | 0.0 | 3.2 | 0.00 | 0.00 | 0.00 | 70 | 1020.3 |
| 20260507070404 | 20 | 277 | 1.6 | 3.2 | 0.00 | 0.00 | 0.00 | 71 | 1020.2 |
| 20260507065907 | 18 | 248 | 0.0 | 1.6 | 0.00 | 0.00 | 0.00 | 73 | 1020.3 |
| 20260507065404 | 18 | 279 | 0.0 | 1.6 | 0.00 | 0.00 | 0.00 | 72 | 1020.4 |
| 20260507064404 | 19 | 231 | 0.0 | 4.8 | 0.00 | 0.00 | 0.00 | 72 | 1020.5 |
| 20260507063905 | 19 | 248 | 0.0 | 4.8 | 0.00 | 0.00 | 0.00 | 71 | 1020.5 |
| 20260507062403 | 20 | 280 | 1.6 | 4.8 | 0.00 | 0.00 | 0.00 | 70 | 1020.5 |
| 20260507061906 | 20 | 275 | 1.6 | 4.8 | 0.00 | 0.00 | 0.00 | 68 | 1020.4 |
| 20260507060903 | 21 | 300 | 1.6 | 3.2 | 0.00 | 0.00 | 0.00 | 64 | 1020.2 |